DMSP 5D-2 F14 DEB

基本信息
目录编号:
63155
目录名称:
DMSP 5D-2 F14 DEB
国际标识:
1997-012V
轨道中心:
EARTH
物体状态:
在轨
发射日期:
1997-04-04 UTC
轨道信息
数据来源: 国际轨道数据
星历时间: 2026-07-11T17:13:42+0800
半长轴: 7183.087km
偏心率: 0.0030528
轨道倾角: 98.844°
近地点辐角: 337.283°
升交点赤经: 251.492°
平近点角: 22.700°
近地点: 783.021km
远地点: 826.879km
周期: 100.978分钟
每日圈数: 14.260545
详细信息
发射场:
AFWTR
轨道高度:
LEO
数据来源:
AOE Integration Group
参考系:
TEME
时间系统:
UTC
历元类型:
SGP4
2D轨道图
3D轨道图
轨道高度分析图
轨道倾角分析图
轨道综合分析图
查看轨道综合分析图